THORAD AGENA D DEB, 19238

Orbit data source: Space-Track

THORAD AGENA D DEB, 19238 is space debris in SSO originally from a launch on Wed, 08 Apr 1970 UTC launched from the Air Force Western Test Range (AFWTR). Debris objects in space refer to the collection of defunct objects orbiting the Earth. Examples of debris include non-operational satellites, rocket bodies, and fragments generated from explosions, collisions, or faulty payload assembly.

Loading next visibility...
Identifier
19238, 1970-025PT
Orbit
SSO
Country
Flag of USUS
Related business
Manufacturer
Unknown
Mission
Spacecraft
Bus & Motor
Unknown
Mass
Unknown
Launch date (UTC)
1970-04-08 (56 years ago)
Launch vehicle
Unknown
Launch site
Air Force Western Test Range (AFWTR)
Object type
Payload
Rocket body
Debris
Shape & HBR
Unknown shape, 0.1 m
Radar Cross Section
Small (<0.1 m²)

Expand to show TLE details & history
Last TLE update: 11 hours ago

TLE from 11 hours ago
0 THORAD AGENA D DEB
1 19238U 70025PT  26124.00534647  .00001300  00000-0  12865-2 0  9999
2 19238  99.8743 315.7255 0042221 202.9770 312.5610 13.80164445933976
Epoch: 2026-05-04T00:07Z
TLE epoch observation values (Epoch: 2026-05-04T00:07:41.935Z)
Latitude
24.45471°
Longitude
-83.58344°
Altitude
945.278 km
Speed
7.392 km/s
True Right ascension
09h 20m 58s
True Declination
24° 19' 43"
Sunlit
Object was in daylight at epoch
Visualization orbit readout
Latitude
Unknown
Longitude
Unknown
Altitude
Unknown
Speed
Unknown
Apparent Right ascension
Unknown
Apparent Declination
Unknown
Sunlit
N/A
Visualization observer readout
Local Sidereal Time
18:45:57
Azimuth
Unknown
Elevation
Unknown
Doppler factor
Unknown
Orbital elements
Apogee altitude
991.559 km
Perigee altitude
929.589 km
Semi-major axis
7,338.711 km
Eccentricity
0.00422
Inclination
99.8743°
RAAN
315.7255°
Arg. of periapsis
202.977°
True anomaly
312.20337°
Mean anomaly
312.561°
Eccentric anomaly
312.38231°
Mean motion
3.45234 °/min
Orbital period
104.28 mins
BSTAR
0.0012865
Loading maneuver chart data...
Computing Atmospheric mass density...

Documentation

Showing up to 5 results
|